Regional Weather Roundup
Issued by NWS

Home | Current Version | Previous Version | Text Only | Print | Product List | Glossary Off
Versions: 1 2 3 4 5 6 7 8 9 10 11 12 13 14 15 16 17 18 19 20 21 22 23 24 25 26 27 28 29 30 31 32 33 34 35 36 37 38 39 40 41 42 43 44 45 46 47 48 49 50

000
ASUS43 KMKX 161300
RWRWI

WISCONSIN REGIONAL WEATHER ROUNDUP
NATIONAL WEATHER SERVICE MILWAUKEE/SULLIVAN WI
800 AM CDT TUE SEP 16 2014

NOTE: "FAIR" INDICATES FEW OR NO CLOUDS BELOW 12,000 FEET WITH NO
SIGNIFICANT WEATHER AND/OR OBSTRUCTIONS TO VISIBILITY.

WIZ001-002-006>008-014>016-023>028-161400-
NORTHWEST WISCONSIN

CITY           SKY/WX    TMP DP  RH WIND       PRES   REMARKS
SUPERIOR ARPT  SUNNY     41  38  87 SW7       30.11S
ASHLAND        SUNNY     47  38  71 SW10      30.11F
HAYWARD        MOSUNNY   36  34  92 CALM      30.15F
SIREN          SUNNY     45  38  77 SW6       30.16S
RICE LAKE      SUNNY     35  35  97 CALM      30.20R
LADYSMITH      MOSUNNY   37  36  96 CALM      30.19S
EAU CLAIRE     SUNNY     40  38  93 SW3       30.19S FOG
MENOMONIE      SUNNY     38  37  97 CALM      30.20S
NEW RICHMOND   SUNNY     39  39 100 S3        30.19S
OSCEOLA        SUNNY     38  38 100 CALM      30.21S
$$

WIZ003>005-009-010-017-018-161400-
NORTH CENTRAL WISCONSIN

CITY           SKY/WX    TMP DP  RH WIND       PRES   REMARKS
WOODRUFF       MOSUNNY   39  36  87 CALM      30.13F
RHINELANDER    SUNNY     41  37  86 W6        30.15F
EAGLE RIVER    SUNNY     35  35 100 CALM      30.13S
LAND O LAKES   SUNNY     32  32 100 CALM      30.13F
PHILLIPS       MOSUNNY   37  34  91 SW3       30.15F
TOMAHAWK       SUNNY     36  35  96 CALM      30.17S
MEDFORD        SUNNY     39  37  91 SW3       30.18S
MERRILL        PTSUNNY   33  32  97 CALM      30.18S
$$

WIZ029-030-035-036-043>047-161400-
CENTRAL WISCONSIN

CITY           SKY/WX    TMP DP  RH WIND       PRES   REMARKS
WAUSAU         SUNNY     43  40  89 CALM      30.17F
MOSINEE        SUNNY     43  39  87 W6        30.19S
MARSHFIELD     SUNNY     43  40  89 W5        30.19S
STEVENS POINT  SUNNY     34  33  95 CALM      30.20S
WAUPACA        SUNNY     43  41  94 CALM      30.20S
WAUTOMA        NOT AVBL
WISC RAPIDS    SUNNY     41  39  93 CALM      30.21F
CAMP DOUGLAS   NOT AVBL
$$

WIZ011>013-019>022-031-037>040-048>050-161400-
NORTHEAST WISCONSIN

CITY           SKY/WX    TMP DP  RH WIND       PRES   REMARKS
ANTIGO         SUNNY     35  34  98 CALM      30.17S
STURGEON BAY   SUNNY     46  41  81 SW6       30.16F
GREEN BAY      SUNNY     45  42  89 W7        30.18S
MANITOWOC      NOT AVBL
APPLETON       SUNNY     45  39  81 W10       30.19S
CLINTONVILLE   SUNNY     39  37  93 CALM      30.19S
OSHKOSH        SUNNY     46  40  79 W5        30.19S
$$

WIZ032>034-041-042-053>061-161400-
SOUTHWEST WISCONSIN

CITY           SKY/WX    TMP DP  RH WIND       PRES   REMARKS
LA CROSSE      CLOUDY    45  43  93 S3        30.22S FOG
SPARTA         FOG       33  33 100 CALM      30.23S VSB 1/4
VIROQUA        FAIR      42  42 100 SW3       30.22R
BOSCOBEL       FOG       43  42  97 SW3       30.24S VSB<1/4
PRAIRIE DU CHI DRZL/FOG  42  41  96 CALM      30.24S VSB<1/4
PLATTEVILLE    CLOUDY    38  37  97 CALM      30.24R VSB<1/4
$$

WIZ056-057-062-063-064-067-068-161400-
SOUTH CENTRAL WISCONSIN

CITY           SKY/WX    TMP DP  RH WIND       PRES   REMARKS
BARABOO/DELLS  SUNNY     38  38  97 CALM      30.21S
LONE ROCK      NOT AVBL
WATERTOWN      SUNNY     38  38 100 CALM      30.21S
MADISON        SUNNY     43  40  89 CALM      30.21F
MIDDLETON      FAIR      38  38 100 CALM      30.22S
MONROE         SUNNY     46  39  76 NW6       30.22S
JANESVILLE     SUNNY     43  43 100 CALM      30.21S
$$

WIZ051-052-058>065-066-070>072-161400-
SOUTHEAST WISCONSIN

CITY           SKY/WX    TMP DP  RH WIND       PRES   REMARKS
MILWAUKEE      SUNNY     49  42  77 W6        30.20F
WAUKESHA       SUNNY     43  43 100 W3        30.21S
MILWAUKEE/TIMM SUNNY     43  41  93 CALM      30.21S
RACINE         SUNNY     47  43  86 NW6       30.22S
BURLINGTON     SUNNY     40  40 100 CALM      30.21S
KENOSHA        SUNNY     47  44  90 NW5       30.21S
FOND DU LAC    SUNNY     43  40  89 S3        30.20S
SHEBOYGAN      SUNNY     46  43  89 W5        30.19S
WEST BEND      SUNNY     41  39  93 CALM      30.20S
JUNEAU         MOSUNNY   38  38  99 CALM      30.22S
$$

LSZ147-162-161400-
LAKE SUPERIOR

STATION/POSITION TIME  TEMP    WIND        PRES    WAVE
                       AIR SEA DIR/SP/G            HT/PER
                 (UTC) (F)     (DEG/KT/KT) (MB)    (FT/S)
W MID LAKE BUOY  1150   51 47  240/ 16/ 19 1017.3F
DEVILS ISLAND    1200   51     240/ 22/ 26 1018.4R
PORT WING        1240   47     190/  5/  8 1019.3F
SAXON HARBOR     1200   50     200/ 10/ 16 1019.3F
$$

LMZ867-665-643>646-161400-
LAKE MICHIGAN

STATION/POSITION TIME  TEMP    WIND        PRES    WAVE
                       AIR SEA DIR/SP/G            HT/PER
                 (UTC) (F)     (DEG/KT/KT) (MB)    (FT/S)
N MID LAKE BUOY  1150   53 59  270/ 10/ 12 1020.6R   1/ 3
NORTHPORT PIER   1200   48     260/  2/  3 1020.7S
KEWAUNEE LAKESHO 1200   42     290/  5/  8 1020.7R
SHEBOYGAN LAKESH 1200   47 49  270/  9/ 10 1022.8R
PORT WASHINGTON  1200   45     300/  6/  8 1023.0
ATWATER BUOY     1200   49     280/  8/ 10 1023.5R
MILWAUKEE LAKESH 1200   47     300/  7/  8   N/A
S MID LAKE BUOY  1150   58 63  340/ 10/ 12 1022.2R
KENOSHA   LAKESH 1200   48     310/  9/ 13 1022.7R
$$

TC  - TEMPERATURE IN CELSIUS
VSB - VISIBILITY IN STATUTE MILES
WCI - WIND CHILL INDEX
HX  - HEAT INDEX



USA.gov is the U.S. government's official web portal to all federal, state and local government web resources and services.